Home > Weather > Dubbo > Past weeks

Flag for Australia Weather for the Past 2 Weeks in Dubbo, New South Wales, Australia

Now
50 °F

Clear.


Feels Like: 47 °F
Forecast: 51 / 76 °F
Wind: 7 mph from Southeast

Location: Dubbo Airport

Current Time: May 6, 2016 at 4:56:00 AM

Latest Report: May 6, 2016 at 4:00 AM


Visibility: N/A

Pressure: 30.07 "Hg

Humidity: 88%

Dew Point: 46 °F

Location of DubboLocation

Historic Weather in Dubbo — Graph

°F

Dubbo Temperature Yesterday

Maximum temperature yesterday: 73 °F (at 2:00 PM)
Minimum temperature yesterday: 46 °F (at 6:00 AM)
Average temperature yesterday: 59 °F

High & Low Weather Summary for the Past Weeks

 TemperatureHumidityPressure
High82 °F (Apr 21, 1:30 PM)100% (Apr 30, 9:00 AM)30.45 "Hg (Apr 30, 9:00 AM)
Low46 °F (May 4, 7:00 AM)26% (Apr 21, 3:00 PM)29.86 "Hg (May 3, 2:30 PM)
Average64 °F66%30.15 "Hg
* Reported Apr 21 3:00 AM — May 6 3:00 AM, Dubbo, Weather by CustomWeather, © 2016

Note: Actual official high and low records may vary slightly from our data, if they occured in-between our weather recording intervals... More about our weather records

Advertising

Dubbo Weather History for the Previous 24 Hours

Scroll right to see more
 ConditionsComfort  
Time TempWeatherWind HumidityBarometerVisibility
3:00 AM
Fri, May 6
50 °FClear.8 mph94%30.07 "HgN/A
2:30 AM50 °FClear.7 mph94%30.07 "HgN/A
2:00 AM50 °FClear.6 mph94%30.09 "HgN/A
1:30 AM50 °FClear.7 mph94%30.09 "HgN/A
1:00 AM50 °FClear.6 mph94%30.09 "HgN/A
12:00 AM50 °FClear.6 mph94%30.09 "HgN/A
11:00 PM
Thu, May 5
52 °FClear.1 mph82%30.09 "HgN/A
10:30 PM54 °FClear.6 mph82%30.09 "HgN/A
10:00 PM54 °FClear.5 mph82%30.09 "HgN/A
9:30 PM54 °FClear.6 mph82%30.09 "HgN/A
9:00 PM54 °FClear.6 mph82%30.09 "HgN/A
8:00 PM57 °FClear.No wind72%30.09 "HgN/A
7:00 PM59 °FClear.No wind72%30.09 "HgN/A
6:30 PM63 °FClear.No wind64%30.09 "HgN/A
6:00 PM63 °FClear.No wind59%30.07 "HgN/A
5:30 PM66 °FClear.No wind52%30.07 "HgN/A
5:00 PM70 °FClear.3 mph50%30.07 "HgN/A
4:30 PM72 °FClear.5 mph44%30.07 "HgN/A
4:00 PM72 °FSunny.7 mph44%30.07 "HgN/A
3:30 PM73 °FSunny.8 mph41%30.07 "HgN/A
3:00 PM72 °FSunny.5 mph41%30.07 "HgN/A
2:30 PM73 °FSunny.8 mph41%30.07 "HgN/A
2:00 PM73 °FSunny.8 mph41%30.07 "HgN/A
1:30 PM72 °FSunny.8 mph47%30.09 "HgN/A
1:00 PM70 °FSunny.8 mph43%30.09 "HgN/A
12:00 PM72 °FSunny.3 mph44%30.12 "HgN/A
11:30 AM70 °FSunny.3 mph46%30.12 "HgN/A
11:00 AM68 °FSunny.3 mph49%30.15 "HgN/A
10:30 AM64 °FSunny.1 mph56%30.15 "HgN/A
10:00 AM63 °FSunny.3 mph59%30.15 "HgN/A
9:30 AM59 °FSunny.5 mph68%30.15 "HgN/A
9:00 AM57 °FSunny.6 mph67%30.15 "HgN/A
8:30 AM54 °FSunny.5 mph77%30.15 "HgN/A
8:00 AM52 °FSunny.7 mph82%30.15 "HgN/A
7:30 AM50 °FSunny.8 mph82%30.15 "HgN/A
7:00 AM46 °FSunny.7 mph93%30.12 "HgN/A
6:30 AM46 °FSunny.6 mph87%30.12 "HgN/A
6:00 AM46 °FSunny.8 mph93%30.12 "HgN/A
5:30 AM48 °FClear.9 mph87%30.12 "HgN/A
5:00 AM48 °FClear.5 mph87%30.12 "HgN/A
4:00 AM48 °FClear.7 mph87%30.09 "HgN/A
Weather by CustomWeather, © 2016

See weather overviewHow to use our weather pages